KE9LZ-9 Weather Reports


time (UTC)temp
C
wind
direction
speed
KPH
gust
KPH
rain 1hr
cm
rain 24hr
cm
rain mn
cm
humidity
%
barometer
mb
20260905171004 24 7 3.2 8.0 0.00 0.10 0.00 70 1019.1
20260905170004 24 283 3.2 8.0 0.00 0.10 0.00 71 1019.1
20260905165004 23 122 3.2 8.0 0.00 0.10 0.00 72 1019.1
20260905164004 23 118 3.2 11.3 0.00 0.10 0.00 72 1019.2
20260905163004 23 351 3.2 4.8 0.00 0.10 0.00 74 1019.3
20260905162004 23 180 3.2 8.0 0.00 0.10 0.00 73 1019.1
20260905161004 24 92 1.6 8.0 0.00 0.10 0.00 72 1019.2
20260905160004 23 359 3.2 12.9 0.00 0.10 0.00 75 1019.2
20260905155004 23 163 3.2 8.0 0.00 0.10 0.00 76 1019.0
20260905154004 23 0 3.2 4.8 0.00 0.10 0.00 76 1018.9
20260905153004 22 337 1.6 8.0 0.00 0.10 0.00 77 1018.9
20260905152004 22 23 1.6 4.8 0.00 0.10 0.00 77 1018.9
20260905151003 22 23 3.2 8.0 0.00 0.10 0.00 81 1018.7
20260905150004 22 333 3.2 4.8 0.00 0.10 0.00 83 1018.5
20260905144004 21 58 1.6 4.8 0.00 0.10 0.00 84 1018.8
20260905143004 20 46 3.2 4.8 0.00 0.10 0.00 87 1018.8
20260905142004 19 19 1.6 3.2 0.00 0.10 0.00 89 1019.0
20260905140004 20 8 3.2 4.8 0.00 0.10 0.00 86 1019.0
20260905135004 20 26 1.6 3.2 0.00 0.10 0.00 86 1019.0
20260905134004 20 3 1.6 4.8 0.00 0.10 0.00 86 1018.8
20260905133004 20 18 1.6 3.2 0.00 0.10 0.00 87 1018.5
20260905132004 18 349 1.6 3.2 0.00 0.10 0.00 90 1018.7
20260905131004 19 342 1.6 3.2 0.00 0.10 0.00 90 1018.4
20260905125004 17 20 1.6 4.8 0.00 0.10 0.00 99 1018.1
20260905124004 16 79 3.2 4.8 0.00 0.10 0.00 99 1018.0
20260905123004 16 292 1.6 4.8 0.00 0.10 0.00 99 1017.9
20260905122003 16 354 1.6 8.0 0.00 0.10 0.00 99 1017.7
20260905121004 16 72 3.2 8.0 0.00 0.10 0.00 99 1017.6
20260905120003 16 43 1.6 4.8 0.00 0.10 0.00 99 1017.6
20260905115003 16 41 3.2 4.8 0.00 0.10 0.00 99 1017.5
20260905114003 16 38 1.6 4.8 0.00 0.10 0.00 99 1017.5
20260905113004 16 18 1.6 4.8 0.00 0.10 0.00 99 1017.3
20260905112004 16 47 1.6 4.8 0.00 0.10 0.00 99 1017.1
20260905111004 16 25 1.6 4.8 0.00 0.10 0.00 99 1017.4
20260905110004 16 20 1.6 3.2 0.00 0.10 0.00 99 1017.2
20260905105003 16 11 3.2 8.0 0.00 0.10 0.00 99 1017.2
20260905104004 16 1 1.6 4.8 0.00 0.10 0.00 99 1017.1
20260905101004 16 0 1.6 3.2 0.00 0.10 0.00 99 1017.0
20260905100003 16 4 1.6 3.2 0.00 0.10 0.00 99 1016.9
20260905095004 16 337 1.6 3.2 0.00 0.10 0.00 99 1016.9
20260905094004 16 27 1.6 3.2 0.00 0.10 0.00 99 1016.7
20260905093004 16 22 1.6 3.2 0.00 0.10 0.00 99 1016.8
20260905092003 16 354 1.6 3.2 0.00 0.10 0.00 99 1016.7
20260905091004 16 29 1.6 3.2 0.00 0.10 0.00 99 1016.9
20260905090004 16 3 1.6 3.2 0.00 0.10 0.00 99 1017.0
20260905085005 16 1 1.6 3.2 0.00 0.10 0.00 99 1017.1
20260905084004 16 23 1.6 3.2 0.00 0.10 0.00 99 1016.9
20260905083005 16 27 0.0 3.2 0.00 0.10 0.00 99 1017.0
20260905082005 16 28 1.6 3.2 0.00 0.10 0.00 99 1016.8
20260905081004 16 4 1.6 3.2 0.00 0.10 0.00 99 1016.8
20260905080004 16 351 1.6 3.2 0.00 0.10 0.00 99 1016.8
20260905075004 16 18 1.6 3.2 0.00 0.10 0.00 99 1016.9
20260905074004 17 327 1.6 3.2 0.00 0.10 0.00 99 1016.9
20260905073004 17 2 0.0 1.6 0.00 0.10 0.00 99 1016.8
20260905072004 17 358 1.6 1.6 0.00 0.10 0.00 99 1016.8
20260905071004 17 341 1.6 3.2 0.00 0.10 0.00 99 1016.8
20260905070003 17 352 1.6 3.2 0.00 0.10 0.00 99 1016.6
20260905065004 17 355 1.6 3.2 0.00 0.10 0.00 99 1016.6
20260905064004 17 25 1.6 1.6 0.00 0.13 0.00 99 1016.6
20260905063004 17 10 1.6 1.6 0.00 0.15 0.00 99 1016.6
20260905062004 17 0 0.0 3.2 0.00 0.15 0.00 99 1016.7
20260905061004 17 359 1.6 3.2 0.00 0.15 0.00 99 1016.5
20260905060004 17 23 1.6 3.2 0.00 0.15 0.00 99 1016.7
20260905055004 17 7 1.6 3.2 0.00 0.15 0.00 99 1016.7
20260905054004 17 319 1.6 1.6 0.00 0.15 0.00 99 1016.7
20260905053004 17 20 1.6 1.6 0.00 0.15 0.00 99 1016.5
20260905051004 17 326 0.0 3.2 0.00 0.15 0.00 99 1016.5
20260905050004 17 333 0.0 1.6 0.00 0.15 0.00 99 1016.4
20260905045004 17 33 0.0 1.6 0.00 0.15 0.15 99 1016.5
20260905044003 17 16 1.6 1.6 0.00 0.15 0.15 99 1016.5
20260905043004 17 31 1.6 3.2 0.00 0.15 0.15 99 1016.5
20260905041003 18 351 1.6 1.6 0.00 0.15 0.15 99 1016.4
20260905040004 17 5 0.0 1.6 0.00 0.15 0.15 99 1016.4
20260905034004 18 356 1.6 3.2 0.00 0.15 0.15 99 1016.6
20260905033004 18 319 0.0 3.2 0.00 0.15 0.15 99 1016.4
20260905032003 18 5 1.6 3.2 0.00 0.15 0.15 99 1016.4
20260905031004 18 11 1.6 3.2 0.00 0.15 0.15 99 1016.5
20260905030004 18 0 1.6 4.8 0.00 0.15 0.15 99 1016.2
20260905025004 18 11 1.6 3.2 0.00 0.15 0.15 99 1016.4
20260905024004 18 32 1.6 3.2 0.00 0.15 0.15 99 1016.3
20260905023003 18 42 1.6 3.2 0.00 0.15 0.15 99 1016.3
20260905022003 18 77 0.0 3.2 0.00 0.15 0.15 99 1016.1
20260905021004 18 15 1.6 3.2 0.00 0.15 0.15 99 1016.3
20260905020004 18 4 1.6 3.2 0.00 0.15 0.15 99 1016.2
20260905015003 18 7 1.6 3.2 0.00 0.15 0.15 99 1016.1
20260905014004 18 3 1.6 3.2 0.00 0.15 0.15 99 1016.3
20260905013003 18 8 1.6 3.2 0.00 0.15 0.15 99 1016.4
20260905011003 18 43 1.6 3.2 0.00 0.15 0.15 99 1016.3
20260905010004 18 15 1.6 3.2 0.00 0.15 0.15 99 1016.1
20260905005004 18 25 1.6 4.8 0.00 0.15 0.15 99 1015.8
20260905003004 18 19 1.6 3.2 0.00 0.15 0.15 99 1015.8
20260905002004 18 79 1.6 3.2 0.03 0.15 0.15 99 1015.9
20260905001003 18 31 1.6 3.2 0.05 0.15 0.15 99 1016.1
20260904234004 18 353 1.6 3.2 0.10 0.15 0.15 99 1015.9
20260904233004 18 17 1.6 3.2 0.08 0.15 0.15 99 1015.6
20260904232003 18 14 1.6 3.2 0.08 0.15 0.15 99 1015.6
20260904231004 18 340 1.6 3.2 0.03 0.10 0.10 99 1015.7
20260904225003 19 14 1.6 3.2 0.00 0.08 0.08 99 1015.3
20260904224003 19 36 0.0 3.2 0.00 0.08 0.08 99 1015.2
20260904223003 19 5 3.2 4.8 0.00 0.08 0.08 99 1015.2
20260904222004 19 48 1.6 3.2 0.00 0.08 0.08 99 1015.1
20260904221004 19 0 1.6 3.2 0.00 0.08 0.08 99 1014.9
20260904214005 20 9 1.6 4.8 0.00 0.08 0.08 99 1014.5
20260904213004 20 35 1.6 4.8 0.00 0.08 0.08 99 1014.4
20260904211003 20 24 1.6 3.2 0.00 0.08 0.08 99 1014.2
20260904210004 20 27 3.2 4.8 0.00 0.08 0.08 99 1014.4
20260904205004 20 17 1.6 4.8 0.00 0.08 0.08 99 1014.5
20260904203004 20 13 1.6 3.2 0.00 0.08 0.08 99 1014.7
20260904201004 20 80 1.6 4.8 0.00 0.08 0.08 99 1014.7
20260904200004 20 27 1.6 3.2 0.00 0.08 0.08 99 1014.9
20260904195004 20 14 1.6 3.2 0.00 0.08 0.08 99 1014.8
20260904194004 20 355 1.6 3.2 0.00 0.08 0.08 99 1014.8
20260904193004 20 9 1.6 3.2 0.00 0.08 0.08 99 1014.9
20260904192004 20 359 1.6 3.2 0.00 0.08 0.08 99 1014.9
20260904191004 21 13 0.0 3.2 0.00 0.08 0.08 99 1014.8
20260904190004 21 12 0.0 3.2 0.00 0.08 0.08 99 1014.7
20260904185004 21 13 0.0 3.2 0.00 0.08 0.08 99 1014.7
20260904184004 21 13 1.6 3.2 0.00 0.08 0.08 99 1014.7
20260904183004 22 350 0.0 3.2 0.00 0.08 0.08 98 1014.3
20260904182004 22 1 1.6 3.2 0.00 0.08 0.08 97 1014.4
20260904181004 22 357 1.6 3.2 0.00 0.08 0.08 97 1014.3
20260904180003 22 9 3.2 3.2 0.00 0.08 0.08 97 1014.4
20260904175003 22 187 0.0 3.2 0.00 0.08 0.08 97 1014.3
20260904174004 22 160 1.6 3.2 0.00 0.08 0.08 97 1014.5
20260904173004 21 0 1.6 3.2 0.00 0.08 0.08 98 1014.4
20260904172004 21 346 1.6 3.2 0.00 0.08 0.08 98 1014.3